DW1040 Weather Reports


Display with metric or nautical units.
time (UTC)temp
F
wind
direction
speed
MPH
gust
MPH
rain 1hr
in
rain 24hr
in
rain mn
in
humidity
%
barometer
mb
20191015141657 79 50 0.0 3.0 0.00 0.00 0.00 78 1017.8
20191015140058 79 119 0.0 2.0 0.00 0.00 0.00 78 1017.7
20191015134530 77 276 0.0 1.0 0.00 0.00 0.00 82 1017.9
20191015133043 75 277 0.0 1.0 0.00 0.00 0.00 87 1017.9
20191015131530 74 297 0.0 1.0 0.00 0.00 0.00 89 1018.0
20191015130011 73 299 0.0 2.0 0.00 0.00 0.00 90 1017.8
20191015124515 72 291 0.0 1.0 0.00 0.00 0.00 91 1017.6
20191015123001 70 292 0.0 2.0 0.00 0.00 0.00 93 1017.7
20191015121503 69 186 0.0 0.0 0.00 0.00 0.00 94 1017.6
20191015120200 69 187 0.0 0.0 0.00 0.00 0.00 94 1017.6
20191015114707 68 187 0.0 0.0 0.00 0.00 0.00 95 1017.7
20191015113221 68 186 0.0 0.0 0.00 0.00 0.00 94 1017.5
20191015111709 68 187 0.0 0.0 0.00 0.00 0.00 94 1017.3
20191015110145 68 187 0.0 0.0 0.00 0.00 0.00 94 1017.4
20191015104623 68 186 0.0 0.0 0.00 0.00 0.00 94 1017.4
20191015103111 68 186 0.0 0.0 0.00 0.00 0.00 94 1017.4
20191015101642 68 187 0.0 0.0 0.00 0.00 0.00 94 1017.3
20191015100103 68 187 0.0 0.0 0.00 0.00 0.00 94 1017.0
20191015094648 68 186 0.0 0.0 0.00 0.00 0.00 93 1017.0
20191015093125 68 187 0.0 0.0 0.00 0.00 0.00 94 1016.9
20191015091641 68 187 0.0 0.0 0.00 0.00 0.00 93 1016.8
20191015090121 68 187 0.0 0.0 0.00 0.00 0.00 93 1016.8
20191015084637 68 187 0.0 0.0 0.00 0.00 0.00 93 1016.8
20191015083055 68 186 0.0 0.0 0.00 0.00 0.00 93 1016.8
20191015081630 69 187 0.0 0.0 0.00 0.00 0.00 93 1016.9
20191015080052 68 186 0.0 0.0 0.00 0.00 0.00 93 1017.1
20191015074635 69 186 0.0 0.0 0.00 0.00 0.00 93 1017.3
20191015073100 69 187 0.0 0.0 0.00 0.00 0.00 92 1017.3
20191015071542 69 186 0.0 0.0 0.00 0.00 0.00 92 1017.4
20191015070050 70 186 0.0 0.0 0.00 0.00 0.00 91 1017.3
20191015064623 70 186 0.0 0.0 0.00 0.00 0.00 90 1017.4
20191015063111 71 186 0.0 0.0 0.00 0.00 0.00 90 1017.6
20191015061536 71 182 0.0 1.0 0.00 0.00 0.00 90 1017.8
20191015060030 71 103 0.0 1.0 0.00 0.00 0.00 89 1017.8
20191015054518 71 103 0.0 1.0 0.00 0.00 0.00 90 1017.9
20191015053026 71 103 0.0 0.0 0.00 0.00 0.00 89 1018.0
20191015051514 72 103 0.0 1.0 0.00 0.00 0.00 88 1017.9
20191015050040 72 103 0.0 1.0 0.00 0.00 0.00 88 1018.1
20191015044537 72 103 0.0 2.0 0.00 0.00 0.00 88 1018.0
20191015043009 72 115 0.0 1.0 0.00 0.00 0.00 88 1018.1
20191015041506 71 144 0.0 0.0 0.00 0.00 0.00 90 1018.3
20191015040145 71 145 0.0 0.0 0.00 0.00 0.00 90 1018.2
20191015034654 72 145 0.0 1.0 0.00 0.00 0.00 88 1018.1
20191015033147 73 145 0.0 0.0 0.00 0.00 0.00 86 1018.2
20191015031732 73 145 0.0 0.0 0.00 0.00 0.00 84 1018.3
20191015030417 75 145 0.0 0.0 0.00 0.00 0.00 82 1018.3
20191015024649 76 121 0.0 2.0 0.00 0.00 0.00 79 1018.2
20191015023210 76 125 0.0 3.0 0.00 0.00 0.00 79 1018.2
20191015021710 76 105 0.0 2.0 0.00 0.00 0.00 79 1018.2
20191015020221 76 105 1.0 4.0 0.00 0.00 0.00 78 1017.8
20191015014624 76 99 1.0 2.0 0.00 0.00 0.00 79 1017.7
20191015013141 77 112 1.0 8.0 0.00 0.00 0.00 78 1017.6
20191015011650 77 111 0.0 3.0 0.00 0.00 0.00 79 1017.7
20191015010124 77 92 1.0 4.0 0.00 0.00 0.00 79 1017.6
20191015004652 77 89 0.0 4.0 0.00 0.00 0.00 79 1017.5
20191015003101 77 124 1.0 4.0 0.00 0.00 0.00 79 1017.5
20191015001612 77 102 1.0 6.0 0.00 0.00 0.00 79 1017.3
20191015000112 77 115 0.0 3.0 0.00 0.00 0.00 80 1017.2
20191014234612 77 105 1.0 4.0 0.00 0.00 0.00 79 1017.0
20191014233121 78 92 1.0 3.0 0.00 0.00 0.00 80 1016.9
20191014230146 78 90 0.0 4.0 0.00 0.00 0.00 79 1016.9
20191014224636 78 121 0.0 3.0 0.00 0.00 0.00 78 1016.8
20191014223115 79 101 1.0 4.0 0.00 0.00 0.00 77 1016.8
20191014221649 80 102 1.0 4.0 0.00 0.00 0.00 76 1016.7
20191014220149 81 121 0.0 2.0 0.00 0.00 0.00 75 1016.6
20191014214555 81 117 1.0 4.0 0.00 0.00 0.00 74 1016.5
20191014213057 81 117 1.0 4.0 0.00 0.00 0.00 73 1016.5
20191014211602 80 94 2.0 4.0 0.00 0.00 0.00 75 1016.5
20191014210105 81 86 1.0 4.0 0.00 0.00 0.00 75 1016.4
20191014204620 81 110 1.0 3.0 0.00 0.00 0.00 73 1016.5
20191014203104 82 99 2.0 6.0 0.00 0.00 0.00 72 1016.3
20191014201637 82 103 2.0 6.0 0.00 0.00 0.00 71 1016.2
20191014200108 82 107 2.0 6.0 0.00 0.00 0.00 71 1016.1
20191014193043 82 63 1.0 5.0 0.00 0.00 0.00 72 1016.1
20191014191604 83 119 2.0 8.0 0.00 0.00 0.00 72 1016.1
20191014190043 83 67 2.0 5.0 0.00 0.00 0.00 74 1016.3
20191014184556 82 119 3.0 6.0 0.00 0.00 0.00 73 1016.4
20191014183045 83 76 2.0 5.0 0.00 0.00 0.00 74 1016.4
20191014181555 83 75 2.0 6.0 0.00 0.00 0.00 75 1016.7
20191014180027 83 306 1.0 4.0 0.00 0.00 0.00 73 1016.7
20191014174546 83 110 2.0 6.0 0.00 0.00 0.00 72 1016.9
20191014173023 83 66 2.0 6.0 0.00 0.00 0.00 72 1017.2
20191014171554 83 27 2.0 6.0 0.00 0.00 0.00 72 1017.3
20191014170034 83 26 1.0 6.0 0.00 0.00 0.00 73 1017.5
20191014164526 83 67 1.0 5.0 0.00 0.00 0.00 73 1017.5
20191014163035 82 49 1.0 3.0 0.00 0.00 0.00 74 1017.7
20191014161510 81 67 0.0 3.0 0.00 0.00 0.00 75 1017.9
20191014160039 83 82 1.0 6.0 0.00 0.00 0.00 75 1018.0
20191014154512 82 104 1.0 4.0 0.00 0.00 0.00 74 1018.1
20191014153029 83 48 1.0 3.0 0.00 0.00 0.00 75 1018.2
20191014151505 81 65 1.0 4.0 0.00 0.00 0.00 78 1018.1
20191014150004 80 69 1.0 4.0 0.00 0.00 0.00 79 1018.2
20191014144503 81 114 0.0 2.0 0.00 0.00 0.00 75 1018.2
20191014143002 82 137 0.0 3.0 0.00 0.00 0.00 73 1018.3